Tracking 30009 objects as of 7-Dec-2024
HD Live streaming from Space Station
objects crossing your sky now

STARLINK-32360

Track STARLINK-32360 now!
10-day predictions
STARLINK-32360 is classified as:


NORAD ID: 61007
Int'l Code: 2024-158T
Perigee: 453.6 km
Apogee: 455.1 km
Inclination: 53.2 °
Period: 93.5 minutes
Semi major axis: 6825 km
RCS: Unknown
Launch date: September 5, 2024
Source: United States (US)
Launch site: AIR FORCE EASTERN TEST RANGE (AFETR)
Your satellite tracking list
Your tracking list is empty




NASA's NSSDC Master Catalog

Two Line Element Set (TLE):
1 61007U 24158T   24342.13970992  .00000516  00000-0  22883-4 0  9998
2 61007  53.1675  16.5182 0001139  92.2463 267.8672 15.39623035 15748
Source of the keplerian elements: AFSPC